DW5765 Weather Reports


time (UTC)temp
C
wind
direction
speed
KPH
gust
KPH
rain 1hr
cm
rain 24hr
cm
rain mn
cm
humidity
%
barometer
mb
20260507064726 3 165 12.9 24.1 0.23 0.53 0.53 83
20260507064236 3 153 12.9 29.0 0.20 0.51 0.51 84
20260507063725 3 139 9.7 29.0 0.20 0.51 0.51 85
20260507063235 3 141 3.2 11.3 0.18 0.48 0.48 84
20260507062728 3 96 4.8 11.3 0.15 0.46 0.46 85
20260507062219 3 122 4.8 11.3 0.13 0.43 0.43 85
20260507061727 3 136 4.8 12.9 0.13 0.41 0.41 85
20260507061218 -17 166 3.2 9.7 0.08 0.36 0.36 86
20260507060729 3 106 6.4 9.7 0.08 0.36 0.36 86
20260507060219 3 42 1.6 4.8 0.08 0.36 0.36 85
20260507055729 3 130 0.0 6.4 0.05 0.33 0.33 86
20260507055219 3 307 1.6 6.4 0.05 0.33 0.33 85
20260507054224 3 270 3.2 4.8 0.03 0.30 0.30 84
20260507053736 3 213 1.6 6.4 0.03 0.30 0.30 84
20260507053225 3 80 0.0 11.3 0.05 0.30 0.30 83
20260507052736 3 85 3.2 11.3 0.05 0.30 0.30 82
20260507052226 3 146 3.2 11.3 0.05 0.30 0.30 85
20260507051717 3 165 3.2 8.0 0.03 0.28 0.28 85
20260507051226 3 173 1.6 6.4 0.05 0.28 0.28 85
20260507050735 3 211 3.2 9.7 0.08 0.28 0.28 85
20260507050226 3 237 3.2 11.3 0.13 0.28 0.28 85
20260507045721 3 180 4.8 11.3 0.18 0.28 0.28 85
20260507045232 3 173 1.6 9.7 0.23 0.28 0.28 85
20260507044236 3 132 3.2 9.7 0.25 0.28 0.28 88
20260507043727 3 168 4.8 9.7 0.28 0.28 0.28 88
20260507042728 2 105 8.0 16.1 0.25 0.25 0.25 89
20260507042219 2 96 9.7 16.1 0.25 0.25 0.25 89
20260507041730 2 189 8.0 17.7 0.25 0.25 0.25 89
20260507040737 2 123 11.3 22.5 0.20 0.20 0.20 88
20260507040227 -17 163 12.9 22.5 0.15 0.15 0.15
20260507035718 3 166 6.4 19.3 0.10 0.10 0.10
20260507035229 3 121 6.4 24.1 0.05 0.05 0.05 87
20260507034720 4 215 12.9 35.4 0.03 0.03 0.03 85
20260507034231 4 206 16.1 35.4 0.03 0.03 0.03 82
20260507033721 5 184 11.3 24.1 0.00 0.00 0.00 73
20260507033229 5 217 17.7 24.1 0.00 0.00 0.00 71
20260507032724 5 211 8.0 12.9 0.00 0.00 0.00 73
20260507032232 5 200 4.8 17.7 0.00 0.00 0.00 74
20260507031722 5 167 6.4 24.1 0.00 0.00 0.00 75
20260507031234 5 148 14.5 24.1 0.00 0.00 0.00 72
20260507030722 6 117 14.5 25.7 0.00 0.00 0.00 71
20260507030233 6 120 12.9 29.0 0.00 0.00 0.00 70
20260507025723 6 156 14.5 22.5 0.00 0.00 0.00 68
20260507025234 6 201 9.7 17.7 0.00 0.00 0.00 67
20260507024723 6 148 9.7 17.7 0.00 0.00 0.00 67
20260507023729 6 209 9.7 16.1 0.00 0.00 0.00 67
20260507023218 6 128 6.4 17.7 0.00 0.00 0.00 68
20260507022218 6 136 3.2 12.9 0.00 0.00 0.00 68
20260507021727 6 201 4.8 20.9 0.00 0.00 0.00 67
20260507021236 6 194 12.9 20.9 0.00 0.00 0.00 66
20260507020726 6 192 4.8 14.5 0.00 0.00 0.00 67
20260507020236 6 180 4.8 16.1 0.00 0.00 0.00 67
20260507015725 6 131 9.7 16.1 0.00 0.00 0.00 66
20260507015220 6 184 12.9 19.3 0.00 0.00 0.00 66
20260507014730 6 166 12.9 19.3 0.00 0.00 0.00 65
20260507014220 6 211 8.0 16.1 0.00 0.00 0.00 68
20260507013730 6 155 6.4 16.1 0.00 0.00 0.00 67
20260507012733 6 178 9.7 20.9 0.00 0.00 0.00 70
20260507012223 6 171 12.9 20.9 0.00 0.00 0.00 71
20260507011733 6 146 3.2 12.9 0.00 0.00 0.00 75
20260507011222 6 185 6.4 12.9 0.00 0.00 0.00 74
20260507010735 6 156 6.4 20.9 0.00 0.00 0.00 76
20260507010224 5 185 8.0 24.1 0.00 0.00 0.00 76
20260507005733 6 217 6.4 29.0 0.00 0.00 0.00 73
20260507004226 5 65 1.6 11.3 0.00 0.00 0.00 80
20260507003735 5 27 3.2 16.1 0.00 0.00 0.00 81
20260507003224 5 6 11.3 16.1 0.00 0.00 0.00 79
20260507002735 5 356 9.7 16.1 0.00 0.00 0.00 81
20260507002224 5 360 11.3 16.1 0.00 0.00 0.00 78
20260507001719 5 356 6.4 11.3 0.00 0.00 0.00 78
20260507001229 5 8 8.0 11.3 0.00 0.00 0.00 79
20260507000718 5 13 6.4 11.3 0.00 0.00 0.00 80
20260507000229 5 360 8.0 14.5 0.00 0.00 0.00 80
20260506235720 5 343 8.0 14.5 0.00 0.00 0.00 80
20260506235231 5 308 8.0 12.9 0.00 0.00 0.00 79
20260506234722 5 327 4.8 12.9 0.00 0.00 0.00 78
20260506234233 5 307 6.4 14.5 0.00 0.00 0.00 79
20260506233727 5 339 8.0 16.1 0.00 0.00 0.00 83
20260506233218 6 8 11.3 24.1 0.00 0.00 0.00 78
20260506232728 7 10 12.9 24.1 0.00 0.00 0.00 73
20260506231730 7 179 4.8 16.1 0.00 0.00 0.00 58
20260506231220 7 148 8.0 16.1 0.00 0.00 0.00 57
20260506230728 7 175 6.4 14.5 0.00 0.00 0.00 59
20260506230220 7 148 3.2 14.5 0.00 0.00 0.00 58
20260506225222 7 173 8.0 19.3 0.00 0.00 0.00 57
20260506224735 7 166 4.8 16.1 0.00 0.00 0.00 58
20260506224223 8 153 6.4 14.5 0.00 0.00 0.00 57
20260506223224 8 256 8.0 14.5 0.00 0.00 0.00 57
20260506222225 8 202 8.0 14.5 0.00 0.00 0.00 58
20260506221735 8 164 6.4 16.1 0.00 0.00 0.00 59
20260506220718 7 219 12.9 19.3 0.00 0.00 0.00 58
20260506215720 7 135 11.3 20.9 0.00 0.00 0.00 58
20260506215233 7 114 12.9 19.3 0.00 0.00 0.00 59
20260506214723 7 153 11.3 22.5 0.00 0.00 0.00 59
20260506214233 7 268 14.5 22.5 0.00 0.00 0.00 59
20260506213723 7 154 11.3 22.5 0.00 0.00 0.00 60
20260506213233 7 168 12.9 22.5 0.00 0.00 0.00 61
20260506212723 7 161 14.5 25.7 0.00 0.00 0.00 61
20260506212234 7 209 16.1 29.0 0.00 0.00 0.00 61
20260506210729 7 175 8.0 22.5 0.00 0.00 0.00 63
20260506210222 7 179 9.7 20.9 0.00 0.00 0.00 63
20260506205732 7 192 11.3 20.9 0.00 0.00 0.00 62
20260506205223 7 195 11.3 20.9 0.00 0.00 0.00 63
20260506204732 7 164 8.0 17.7 0.00 0.00 0.00 63
20260506204224 7 160 3.2 19.3 0.00 0.00 0.00 67
20260506203733 7 58 8.0 20.9 0.00 0.00 0.00 66
20260506203224 7 194 9.7 16.1 0.00 0.00 0.00 66
20260506202736 7 129 6.4 12.9 0.00 0.00 0.00 70
20260506202230 6 314 4.8 11.3 0.00 0.00 0.00 69
20260506201721 6 15 4.8 11.3 0.00 0.00 0.00 73
20260506201230 6 333 6.4 11.3 0.00 0.00 0.00 73
20260506200719 6 346 6.4 11.3 0.00 0.00 0.00 76
20260506200230 6 19 8.0 11.3 0.00 0.00 0.00 76
20260506195719 6 350 4.8 12.9 0.00 0.00 0.00 78
20260506195229 6 349 9.7 12.9 0.00 0.00 0.00 77
20260506194719 6 330 6.4 9.7 0.00 0.00 0.00 77
20260506194230 6 264 3.2 9.7 0.00 0.00 0.00 77
20260506193725 5 300 4.8 11.3 0.00 0.00 0.00 77
20260506192727 6 309 6.4 11.3 0.00 0.00 0.00 76
20260506192218 6 285 4.8 9.7 0.00 0.00 0.00 77
20260506191729 5 21 3.2 8.0 0.00 0.00 0.00 76
20260506191218 5 250 0.0 11.3 0.00 0.00 0.00 78
20260506190728 5 304 6.4 11.3 0.00 0.00 0.00 77
20260506190218 5 253 4.8 11.3 0.00 0.00 0.00 77
20260506185726 5 258 4.8 9.7 0.00 0.00 0.00 77
20260506185222 5 313 6.4 9.7 0.00 0.00 0.00 76
20260506184732 5 52 4.8 9.7 0.00 0.00 0.00 77
20260506183736 5 23 4.8 9.7 0.00 0.00 0.00 77
20260506183225 5 338 6.4 9.7 0.00 0.00 0.00 78
20260506182736 5 34 3.2 9.7 0.00 0.00 0.00 78
20260506182227 4 32 6.4 9.7 0.00 0.00 0.00 78
20260506181736 4 325 4.8 9.7 0.00 0.00 0.00 79
20260506181228 4 18 6.4 11.3 0.00 0.00 0.00 80
20260506180223 4 344 6.4 9.7 0.00 0.00 0.00 79
20260506175734 4 346 4.8 8.0 0.00 0.00 0.00 80
20260506175225 4 352 4.8 11.3 0.00 0.00 0.00 80
20260506174734 4 348 8.0 11.3 0.00 0.00 0.00 80
20260506174223 3 10 6.4 9.7 0.00 0.00 0.00 80
20260506173735 3 344 6.4 9.7 0.00 0.00 0.00 80
20260506172737 3 346 4.8 9.7 0.00 0.00 0.00 80
20260506172231 3 354 6.4 11.3 0.00 0.00 0.00 80
20260506171233 3 330 6.4 8.0 0.00 0.00 0.00 81
20260506170725 3 358 4.8 9.7 0.00 0.00 0.00 81
20260506170234 3 7 3.2 9.7 0.00 0.00 0.00 81
20260506165237 3 353 3.2 8.0 0.00 0.00 0.00 81
20260506164219 3 339 4.8 8.0 0.00 0.00 0.00 81
20260506163729 3 34 4.8 8.0 0.00 0.00 0.00 81
20260506163223 3 9 6.4 11.3 0.00 0.00 0.00 81
20260506162734 3 354 6.4 11.3 0.00 0.00 0.00 81
20260506162224 3 13 8.0 11.3 0.00 0.00 0.00 81
20260506161733 3 349 6.4 8.0 0.00 0.00 0.00 81
20260506161224 3 3 4.8 8.0 0.00 0.00 0.00 81
20260506160734 3 24 6.4 9.7 0.00 0.00 0.00 81
20260506160225 3 4 6.4 9.7 0.00 0.00 0.00 81
20260506155736 3 349 6.4 11.3 0.00 0.00 0.00 81
20260506155226 3 350 6.4 11.3 0.00 0.00 0.00 81
20260506154722 3 340 4.8 8.0 0.00 0.00 0.00 81
20260506154231 3 359 3.2 8.0 0.00 0.00 0.00 80
20260506153234 3 350 4.8 8.0 0.00 0.00 0.00 80
20260506152724 3 56 6.4 8.0 0.00 0.00 0.00 80
20260506152236 3 20 4.8 8.0 0.00 0.00 0.00 80
20260506151725 3 25 3.2 9.7 0.00 0.00 0.00 79
20260506150728 3 25 6.4 8.0 0.00 0.00 0.00 79
20260506150220 3 22 3.2 4.8 0.00 0.00 0.00 78
20260506145731 3 323 3.2 4.8 0.00 0.00 0.00 78
20260506145221 3 337 1.6 4.8 0.00 0.00 0.00 77
20260506144224 3 328 0.0 3.2 0.00 0.00 0.00 76
20260506143734 3 4 0.0 0.0 0.00 0.00 0.00 75
20260506143224 3 4 0.0 0.0 0.00 0.00 0.00 75
20260506142734 3 4 0.0 0.0 0.00 0.00 0.00 75
20260506142225 3 4 0.0 8.0 0.00 0.00 0.00 75
20260506141719 3 356 3.2 8.0 0.00 0.00 0.00 74
20260506141230 3 331 3.2 6.4 0.00 0.00 0.00 74
20260506140721 3 327 4.8 6.4 0.00 0.00 0.00 73
20260506140231 3 333 4.8 6.4 0.00 0.00 0.00 73
20260506135721 3 287 3.2 4.8 0.00 0.00 0.00 73
20260506135232 3 324 3.2 4.8 0.00 0.00 0.00 72
20260506134721 4 318 3.2 6.4 0.00 0.00 0.00 71
20260506134231 4 10 0.0 9.7 0.00 0.00 0.00 71
20260506133722 4 9 6.4 9.7 0.00 0.00 0.00 70
20260506133236 4 348 4.8 6.4 0.00 0.00 0.00 69
20260506132726 5 2 0.0 6.4 0.00 0.00 0.00 68
20260506132236 5 44 0.0 11.3 0.00 0.00 0.00 68
20260506131727 5 156 1.6 16.1 0.00 0.00 0.00 67
20260506131219 5 145 8.0 16.1 0.00 0.00 0.00 68
20260506130728 5 107 4.8 9.7 0.00 0.00 0.00 68
20260506130217 5 125 4.8 11.3 0.00 0.00 0.00 68
20260506125727 5 173 3.2 12.9 0.00 0.00 0.00 67
20260506125222 5 155 4.8 11.3 0.00 0.00 0.00 67
20260506124733 5 163 3.2 9.7 0.00 0.00 0.00 66
20260506124223 5 186 1.6 12.9 0.00 0.00 0.00 66
20260506123734 5 166 8.0 19.3 0.00 0.00 0.00 67
20260506123223 5 109 9.7 20.9 0.00 0.00 0.00 66
20260506122733 5 186 8.0 16.1 0.00 0.00 0.00 66
20260506122224 5 174 6.4 14.5 0.00 0.00 0.00 67
20260506121732 5 120 6.4 12.9 0.00 0.00 0.00 66
20260506121223 5 165 6.4 22.5 0.00 0.00 0.00 66
20260506120718 5 112 9.7 29.0 0.00 0.00 0.00 66
20260506115721 5 148 11.3 30.6 0.00 0.00 0.00 67
20260506114721 5 108 12.9 24.1 0.00 0.00 0.00 67
20260506113721 5 136 8.0 22.5 0.00 0.00 0.00 68
20260506113230 4 175 9.7 22.5 0.00 0.00 0.00 69
20260506112231 4 138 12.9 27.4 0.00 0.00 0.00 69
20260506111721 4 162 16.1 30.6 0.00 0.00 0.00 69
20260506111235 4 173 14.5 25.7 0.00 0.00 0.00 69
20260506110235 4 159 12.9 22.5 0.00 0.00 0.00 69
20260506105724 4 165 14.5 25.7 0.00 0.00 0.00 69
20260506104726 5 173 12.9 25.7 0.00 0.00 0.00 69
20260506104236 4 188 12.9 29.0 0.00 0.00 0.00 68
20260506103724 4 152 14.5 29.0 0.00 0.00 0.00 69
20260506103234 4 165 14.5 24.1 0.00 0.00 0.00 68
20260506102724 4 202 11.3 19.3 0.00 0.00 0.00 69
20260506102218 4 175 11.3 27.4 0.00 0.00 0.00 69
20260506101219 4 183 16.1 27.4 0.00 0.00 0.00 69
20260506100728 4 188 14.5 25.7 0.00 0.00 0.00 69
20260506100218 4 179 16.1 33.8 0.00 0.00 0.00 70
20260506094730 4 183 14.5 30.6 0.00 0.00 0.00 69
20260506094220 4 164 16.1 27.4 0.00 0.00 0.00 70
20260506093731 4 179 12.9 37.0 0.00 0.00 0.00 69
20260506093226 4 222 17.7 37.0 0.00 0.00 0.00 68
20260506092227 5 198 14.5 38.6 0.00 0.00 0.00 66
20260506091717 5 192 17.7 38.6 0.00 0.00 0.00 65
20260506091228 5 189 14.5 27.4 0.00 0.00 0.00 64
20260506090719 5 189 8.0 25.7 0.00 0.00 0.00 64
20260506090231 5 153 16.1 27.4 0.00 0.00 0.00 64
20260506085721 5 187 17.7 27.4 0.00 0.00 0.00 64
20260506085232 5 157 14.5 30.6 0.00 0.00 0.00 64
20260506084727 5 161 17.7 33.8 0.00 0.00 0.00 64
20260506084217 5 178 19.3 41.8 0.00 0.00 0.00 63
20260506083728 5 155 20.9 40.2 0.00 0.00 0.00 63
20260506083218 5 146 24.1 40.2 0.00 0.00 0.00 62
20260506082729 5 155 22.5 35.4 0.00 0.00 0.00 62
20260506081733 5 139 17.7 38.6 0.00 0.00 0.00 62
20260506081223 5 140 22.5 30.6 0.00 0.00 0.00 62
20260506080734 5 148 17.7 32.2 0.00 0.00 0.00 62
20260506080228 5 165 20.9 32.2 0.00 0.00 0.00 62
20260506072218 5 169 14.5 30.6 0.00 0.00 0.00 61
20260506071728 5 156 19.3 30.6 0.00 0.00 0.00 62
20260506071223 5 185 16.1 29.0 0.00 0.00 0.00 62
20260506070733 5 140 16.1 29.0 0.00 0.00 0.00 62
20260506070223 5 129 19.3 35.4 0.00 0.00 0.00 61